Tracking 32954 objects as of 19-Jan-2026
HD Live streaming from Space Station
objects crossing your sky now

COSMOS 1275 DEB

Track COSMOS 1275 DEB now!
10-day predictions


NORAD ID: 42103
Int'l Code: 1981-053PP
Perigee: 825.1 km
Apogee: 869.7 km
Inclination: 83.2 °
Period: 101.7 minutes
Semi major axis: 7218 km
RCS: Unknown
Launch date: June 4, 1981
Source: Commonwealth of Independent States (former USSR) (CIS)
Launch site: PLESETSK MISSILE AND SPACE COMPLEX (PKMTR)

Note: This is SATELLITE DEBRIS
Your satellite tracking list
Your tracking list is empty




NASA's NSSDC Master Catalog

Two Line Element Set (TLE):
1 42103U 81053PP  26013.39608072  .00001836  00000-0  92548-3 0  9993
2 42103  83.1747  61.6680 0030894 162.2564 197.9702 14.15602567623002
Source of the keplerian elements: AFSPC